EW5738 Weather Reports


time (UTC)temp
F
wind
direction
speed
knots
gust
knots
rain 1hr
in
rain 24hr
in
rain mn
in
humidity
%
barometer
mb
20260505013056 76 120 1.7 6.1 0.00 0.01 0.01 77 1017.1
20260505011554 75 39 0.9 5.2 0.00 0.01 0.01 76 1017.4
20260505010109 76 196 2.6 6.1 0.00 0.01 0.01 77 1017.8
20260505004548 74 135 2.6 4.3 0.00 0.01 0.01 80 1018.0
20260505003047 75 185 3.5 6.1 0.00 0.01 0.01 80 1018.1
20260505001542 75 178 0.9 7.0 0.00 0.01 0.01 79 1018.3
20260505000044 74 128 2.6 7.8 0.00 0.01 0.01 83 1018.4
20260504234533 72 336 1.7 3.5 0.00 0.01 0.01 85 1018.4
20260504233031 72 135 1.7 6.1 0.00 0.01 0.01 87 1018.6
20260504231526 71 111 3.5 6.1 0.00 0.01 0.01 93 1018.7
20260504230036 69 186 2.6 6.1 0.00 0.01 0.01 96 1018.7
20260504224522 67 152 2.6 7.0 0.00 0.01 0.01 96 1018.7
20260504223016 67 152 1.7 3.5 0.00 0.01 0.01 96 1018.7
20260504221534 66 46 0.0 2.6 0.01 0.01 0.01 96 1018.7
20260504220012 65 89 0.0 1.7 0.01 0.01 0.01 96 1018.6
20260504214511 65 187 0.9 2.6 0.01 0.02 0.01 96 1018.6
20260504213009 64 135 0.0 1.7 0.01 0.02 0.01 96 1018.5
20260504211508 64 135 0.9 2.6 0.00 0.02 0.00 96 1018.4
20260504210006 64 135 0.0 1.7 0.00 0.02 0.00 95 1018.3
20260504204502 64 145 0.9 2.6 0.00 0.02 0.00 95 1018.0
20260504203001 64 178 0.0 2.6 0.00 0.02 0.00 95 1017.9
20260504201559 64 295 0.9 2.6 0.00 0.02 0.00 95 1018.0
20260504194600 64 276 1.7 2.6 0.00 0.02 0.00 95 1017.5
20260504193102 64 173 0.9 2.6 0.00 0.02 0.00 95 1017.4
20260504191601 64 310 0.9 2.6 0.00 0.02 0.00 95 1017.2
20260504190054 64 178 0.0 1.7 0.00 0.02 0.00 95 1017.2
20260504184553 64 306 0.9 2.6 0.00 0.02 0.00 95 1017.1
20260504183051 65 308 0.0 2.6 0.00 0.02 0.00 95 1017.1
20260504181551 65 223 1.7 3.5 0.00 0.02 0.00 95 1017.1
20260504180050 65 46 0.0 3.5 0.00 0.02 0.00 95 1016.8
20260504174547 66 269 0.9 2.6 0.00 0.02 0.00 95 1016.8
20260504173046 66 269 1.7 2.6 0.00 0.02 0.00 95 1016.9
20260504171544 66 283 1.7 4.3 0.00 0.02 0.00 95 1017.0
20260504100122 71 170 1.7 3.5 0.00 0.02 0.02 87 1018.9
20260504081505 72 102 0.9 6.1 0.00 0.02 0.02 84 1017.9
20260504044551 78 15 0.9 4.3 0.00 0.02 0.02 70 1016.7
20260504043054 78 340 1.7 4.3 0.00 0.02 0.02 69 1016.6
20260504041549 77 269 0.9 3.5 0.00 0.02 0.02 68 1016.7
20260504040107 77 129 1.7 5.2 0.00 0.02 0.02 70 1016.8
20260504034546 78 122 0.9 6.1 0.00 0.02 0.02 69 1016.8
20260504033043 78 334 0.9 4.3 0.00 0.02 0.02 72 1016.9
20260504031542 78 286 1.7 4.3 0.00 0.02 0.02 69 1017.0
20260504030039 78 135 0.9 7.8 0.00 0.02 0.02 69 1017.3
20260504024536 78 223 0.0 5.2 0.00 0.02 0.02 69 1017.5
20260504023034 79 147 1.7 7.8 0.00 0.02 0.02 68 1017.7
20260504021530 78 13 1.7 7.0 0.00 0.02 0.02 70 1017.9
20260504020027 77 167 3.5 7.0 0.00 0.02 0.02 70 1018.2
20260504014526 78 178 1.7 8.7 0.00 0.02 0.02 69 1018.4